Regional Weather Roundup
Issued by NWS

Home | Current Version | Previous Version | Graphics & Text | Print | Product List | Glossary Off
Versions: 1 2 3 4 5 6 7 8 9 10 11 12 13 14 15 16 17 18 19 20 21 22 23 24 25 26 27 28 29 30 31 32 33 34 35 36 37 38 39 40 41 42 43 44 45 46 47 48 49 50

000
ASUS43 KMKX 061520
RWRWI

WISCONSIN REGIONAL WEATHER ROUNDUP
NATIONAL WEATHER SERVICE MILWAUKEE/SULLIVAN WI
900 AM CST FRI MAR 06 2015

NOTE: "FAIR" INDICATES FEW OR NO CLOUDS BELOW 12,000 FEET WITH NO
SIGNIFICANT WEATHER AND/OR OBSTRUCTIONS TO VISIBILITY.

WIZ001-002-006>008-014>016-023>028-061600-
NORTHWEST WISCONSIN

CITY           SKY/WX    TMP DP  RH WIND       PRES   REMARKS
SUPERIOR ARPT  SUNNY     17   6  60 SW12      30.01F WCI   5
ASHLAND        PTSUNNY   14   2  58 S8        30.02R WCI   3
HAYWARD        CLOUDY    12   1  61 S12       30.03R WCI  -2
SIREN          MOSUNNY   19   7  59 SW8       30.04R WCI   9
CUMBERLAND     CLOUDY    12   5  73 SW8       30.03S WCI   1
RICE LAKE      PTSUNNY   13   4  65 S8        30.06F WCI   2
CHETEK         CLOUDY    13   3  62 S8        30.06F WCI   2
LADYSMITH      CLOUDY    10   2  67 S8        30.08S WCI  -1
EAU CLAIRE     CLOUDY    16   3  56 S15G21    30.09F WCI   1
MENOMONIE      CLOUDY    15   4  61 S8        30.09F WCI   5
NEW RICHMOND   CLOUDY    17   7  64 SW10G17   30.06S WCI   4
OSCEOLA        CLOUDY    17   7  64 S6        30.09R WCI   9
$$

WIZ003>005-009-010-017-018-061600-
NORTH CENTRAL WISCONSIN

CITY           SKY/WX    TMP DP  RH WIND       PRES   REMARKS
MANITOWISH WTR PTSUNNY   11   1  62 SW16G22   29.99S WCI  -6
ARBOR VITAE    MOSUNNY   10   1  67 S10       29.99F WCI  -4
WOODRUFF       MOSUNNY   10   1  67 S10       29.99F WCI  -4
RHINELANDER    CLOUDY     9  -2  61 SW18G25   30.02F WCI -10
EAGLE RIVER    SUNNY     10  -1  59 SW13G21   30.00F WCI  -5
LAND O LAKES   CLOUDY    12   0  58 SW8G17    29.98F WCI   1
PHILLIPS       CLOUDY    11   0  62 SW13G20   30.02F WCI  -4
TOMAHAWK       CLOUDY     8  -1  66 CALM      30.05F
MEDFORD        CLOUDY     9   0  66 SW13      30.07F WCI  -7
MERRILL        CLOUDY     9  -1  63 SW7       30.09F WCI  -2
$$

WIZ029-030-035-036-043>047-061600-
CENTRAL WISCONSIN

CITY           SKY/WX    TMP DP  RH WIND       PRES   REMARKS
WAUSAU         MOSUNNY    8  -1  66 S8        30.11F WCI  -4
MOSINEE        SUNNY      9  18 100 S14       30.14S WCI  -8
MARSHFIELD     MOSUNNY   11   0  61 SW15      30.11F WCI  -5
STEVENS POINT  SUNNY     10  -1  62 S13       30.16S WCI  -6
WAUPACA        SUNNY     13   1  58 S10       30.21F WCI   0
WAUTOMA        SUNNY     13   0  56 S7        30.22F WCI   3
WISC RAPIDS    SUNNY     12   0  58 SW13G23   30.18F WCI  -3
CAMP DOUGLAS   MOSUNNY   16   3  57 S8        30.17F WCI   5
$$

WIZ011>013-019>022-031-037>040-048>050-061600-
NORTHEAST WISCONSIN

CITY           SKY/WX    TMP DP  RH WIND       PRES   REMARKS
ANTIGO         SUNNY      7  -1  67 SW13      30.08F WCI  -9
SHAWANO        SUNNY     11   0  59 SW12G20   30.20F WCI  -3
OCONTO         CLOUDY    11  -1  60 SW8       30.21F WCI  -1
STURGEON BAY   CLOUDY    14   0  52 SW17G23   30.20F WCI  -3
GREEN BAY      CLOUDY     9   0  67 SW20      30.23F WCI -10
MANITOWOC      PTSUNNY   15   3  59 SW16      30.25F WCI  -1
APPLETON       PTSUNNY    9   0  66 S13       30.22F WCI  -7
CLINTONVILLE   MOSUNNY   10   0  61 SW10      30.20F WCI  -3
OSHKOSH        PTSUNNY   11   1  64 S15G24    30.23F WCI  -5
$$

WIZ032>034-041-042-053>061-061600-
SOUTHWEST WISCONSIN

CITY           SKY/WX    TMP DP  RH WIND       PRES   REMARKS
LA CROSSE      SUNNY     15   3  59 S13       30.19F WCI   1
SPARTA         SUNNY     17   4  54 SW10      30.19F WCI   5
VIROQUA        SUNNY     13   3  64 S6        30.17S WCI   4
BOSCOBEL       SUNNY     16   3  56 S12       30.25F WCI   3
PRAIRIE DU CHI SUNNY     17   4  56 S8        30.24F WCI   6
PLATTEVILLE    SUNNY     12   3  69 S20       30.25R WCI  -7
$$

WIZ056-057-062-063-064-067-068-061600-
SOUTH CENTRAL WISCONSIN

CITY           SKY/WX    TMP DP  RH WIND       PRES   REMARKS
REEDSBURG      MOSUNNY   11   1  66 S7        30.21F WCI   0
BARABOO/DELLS  SUNNY     15   3  58 SW17      30.19F WCI  -1
LONE ROCK      SUNNY     14   2  58 S10       30.25F WCI   1
MINERAL POINT  SUNNY     12   3  67 S12       30.22S WCI  -2
MADISON        FAIR      11   1  64 S15       30.26F WCI  -5
MIDDLETON      FAIR      15   2  56 S13       30.25F WCI   0
WATERTOWN      PTSUNNY   12   2  65 S14       30.28F WCI  -4
MONROE         SUNNY     12   5  73 S16       30.25F WCI  -4
JANESVILLE     MOSUNNY   12   1  62 S13G22    30.31F WCI  -3
$$

WIZ051-052-058>065-066-070>072-061600-
SOUTHEAST WISCONSIN

CITY           SKY/WX    TMP DP  RH WIND       PRES   REMARKS
MILWAUKEE      PTSUNNY   10  -2  58 SW22G29   30.33F WCI -10
WAUKESHA       SUNNY      9  -2  61 S13       30.32F WCI  -7
MILWAUKEE/TIMM SUNNY     12   0  57 SW14G22   30.32F WCI  -3
RACINE         SUNNY     11   0  61 SW13      30.36F WCI  -4
BURLINGTON     SUNNY     10  -1  62 S14G21    30.34S WCI  -6
KENOSHA        SUNNY     12   1  61 SW15G21   30.35F WCI  -4
FOND DU LAC    PTSUNNY   13   1  59 S17G24    30.24F WCI  -4
SHEBOYGAN      MOSUNNY   13   2  61 SW15      30.27F WCI  -3
WEST BEND      MOSUNNY   14   1  57 SW13      30.28F WCI   0
JUNEAU         MOSUNNY   10   1  67 S18       30.27F WCI  -8
$$

LSZ147-162-061600-
LAKE SUPERIOR

STATION/POSITION TIME  TEMP    WIND        PRES    WAVE
                       AIR SEA DIR/SP/G            HT/PER
                 (UTC) (F)     (DEG/KT/KT) (MB)    (FT/S)
DEVILS ISLAND    1500   15     240/ 19/ 22 1016.5F
PORT WING        1440   17     210/ 11/ 16 1016.3F
SAXON HARBOR     1400   16     190/ 11/ 15 1015.9
$$

LMZ867-665-643>646-061600-
LAKE MICHIGAN

STATION/POSITION TIME  TEMP    WIND        PRES    WAVE
                       AIR SEA DIR/SP/G            HT/PER
                 (UTC) (F)     (DEG/KT/KT) (MB)    (FT/S)
NORTHPORT PIER   1502   15     200/  9/ 23 1021.7F
KEWAUNEE LAKESHO 1500   14     220/ 13/ 18 1022.7F
SHEBOYGAN LAKESH 1500   13     210/ 15/ 16 1027.2F
PORT WASHINGTON  1440   15     240/  8/ 15 1027.4F
MILWAUKEE LAKESH 1500   12     220/ 17/ 20   N/A
KENOSHA   LAKESH 1500   13     220/  8/ 15 1028.1F
$$

TC  - TEMPERATURE IN CELSIUS
VSB - VISIBILITY IN STATUTE MILES
WCI - WIND CHILL INDEX
HX  - HEAT INDEX




USA.gov is the U.S. government's official web portal to all federal, state and local government web resources and services.